sat.trackr.live / text

‹ back to catalog

STARLINK-11542 [DTC]

NORAD 62988 · 2025-031H

PAYLOAD ACTIVE UNKNOWN

§ Identity

Operator
Country
US
Launch date
2025-02-11
Launch site
AFETR
Launch vehicle
Mass (kg)
RCS (m²)

Purposes: comms

External: N2YO · Heavens-Above · Gunter

§ Orbital elements

Epoch: 2026-09-21T16:55:45.056640Z

Period
91.67 min
Inclination
42.9995°
Eccentricity
0.0001301
Mean motion
15.70862758 rev/d
Perigee alt
355.6 km
Apogee alt
357.3 km
Semi-major
6,734.6 km
B*
1.3651e-3
RAAN
259.6680°
Arg perigee
262.4945°
Mean anomaly
97.5775°
Rev number
9,354

§ Raw data

STARLINK-11542 [DTC]1 62988U 25031H   26264.70538260  .00178696  00000+0  13651-2 0  99992 62988  42.9995 259.6680 0001301 262.4945  97.5775 15.70862758 93546

JSON: /api/v1/satellites/62988 · /tle

For live sub-satellite position, see the globe view (requires WebGL).

§ Visibility from observer

Set your observer location to see the next 7 days of passes ≥ 10°. The values pass through the URL so the page stays shareable.

No JS? Fill the form by hand. The geolocation button needs JavaScript.